WB5OMR-9 Weather Reports


time (UTC)temp
F
wind
direction
speed
knots
gust
knots
rain 1hr
in
rain 24hr
in
rain mn
in
humidity
%
barometer
mb
20260504050010 67 0.0 0.0 0.00 0.00 0.00 68 1016.9
20260504045008 67 0.0 0.0 0.00 0.00 0.00 68 1016.9
20260504044007 68 0.0 0.0 0.00 0.00 0.00 67 1016.9
20260504042924 68 0.0 0.0 0.00 0.00 0.00 67 1016.9
20260504041840 68 0.0 0.0 0.00 0.00 0.00 66 1016.9
20260504040757 68 0.0 0.0 0.00 0.00 0.00 66 1016.9
20260504035756 68 0.0 0.0 0.00 0.00 0.00 65 1016.9
20260504034754 68 0.0 0.0 0.00 0.00 0.00 65 1016.6
20260504033753 68 0.0 0.0 0.00 0.00 0.00 65 1016.9
20260504032752 68 0.0 0.0 0.00 0.00 0.00 64 1016.9
20260504031750 69 0.0 0.0 0.00 0.00 0.00 64 1016.9
20260504030749 69 0.0 0.0 0.00 0.00 0.00 63 1016.9
20260504025748 69 0.0 0.0 0.00 0.00 0.00 63 1016.6
20260504024747 69 0.0 0.0 0.00 0.00 0.00 63 1016.6
20260504023704 69 0.0 0.0 0.00 0.00 0.00 64 1016.6
20260504022702 70 0.0 0.0 0.00 0.00 0.00 62 1016.6
20260504021701 70 0.0 0.0 0.00 0.00 0.00 60 1016.6
20260504020700 71 0.0 0.0 0.00 0.00 0.00 59 1016.6
20260504015659 72 0.0 0.0 0.00 0.00 0.00 58 1016.6
20260504014657 73 0.0 0.0 0.00 0.00 0.00 55 1016.6
20260504013655 73 0.0 0.0 0.00 0.00 0.00 53 1016.6
20260504012653 74 0.0 0.0 0.00 0.00 0.00 52 1016.6
20260504011652 74 0.0 0.0 0.00 0.00 0.00 50 1016.3
20260504010651 75 0.0 0.0 0.00 0.00 0.00 49 1016.3
20260504005650 76 0.0 0.0 0.00 0.00 0.00 48 1016.6
20260504004649 77 0.0 0.0 0.00 0.00 0.00 47 1016.6
20260504003648 77 0.0 0.0 0.00 0.00 0.00 46 1016.6
20260504002647 77 0.0 0.0 0.00 0.00 0.00 45 1016.6
20260504001646 78 0.0 0.0 0.00 0.00 0.00 44 1016.6
20260504000645 79 0.0 0.0 0.00 0.00 0.00 43 1016.6
20260503235643 79 0.0 0.0 0.00 0.00 0.00 42 1016.6
20260503234600 80 0.0 0.0 0.00 0.00 0.00 41 1016.6
20260503233559 81 0.0 0.0 0.00 0.00 0.00 40 1016.6
20260503232558 82 0.0 0.0 0.00 0.00 0.00 40 1016.9
20260503231556 82 0.0 0.0 0.00 0.00 0.00 40 1016.9
20260503230555 82 0.0 0.0 0.00 0.00 0.00 39 1017.3
20260503225554 82 0.0 0.0 0.00 0.00 0.00 39 1017.3
20260503224553 83 0.0 0.0 0.00 0.00 0.00 39 1016.9
20260503223552 83 0.0 0.0 0.00 0.00 0.00 39 1017.3
20260503222551 83 0.0 0.0 0.00 0.00 0.00 40 1017.3
20260503221550 83 0.0 0.0 0.00 0.00 0.00 39 1017.6
20260503220548 83 0.0 0.0 0.00 0.00 0.00 38 1017.6
20260503215547 83 0.0 0.0 0.00 0.00 0.00 38 1017.9
20260503214546 84 0.0 0.0 0.00 0.00 0.00 39 1017.9
20260503213545 83 0.0 0.0 0.00 0.00 0.00 39 1018.3
20260503212544 84 0.0 0.0 0.00 0.00 0.00 38 1018.3
20260503211543 83 0.0 0.0 0.00 0.00 0.00 40 1018.6
20260503210541 83 0.0 0.0 0.00 0.00 0.00 40 1019.0
20260503205458 84 0.0 0.0 0.00 0.00 0.00 39 1019.3
20260503204457 83 0.0 0.0 0.00 0.00 0.00 40 1019.3
20260503203456 83 0.0 0.0 0.00 0.00 0.00 40 1019.6
20260503202454 82 0.0 0.0 0.00 0.00 0.00 40 1019.6
20260503201453 82 0.0 0.0 0.00 0.00 0.00 40 1020.0
20260503200452 82 0.0 0.0 0.00 0.00 0.00 41 1020.0
20260503195408 82 0.0 0.0 0.00 0.00 0.00 40 1020.3
20260503194325 82 0.0 0.0 0.00 0.00 0.00 40 1020.7
20260503193324 82 0.0 0.0 0.00 0.00 0.00 40 1020.7
20260503192322 82 0.0 0.0 0.00 0.00 0.00 42 1020.7
20260503191321 82 0.0 0.0 0.00 0.00 0.00 41 1020.7
20260503190320 82 0.0 0.0 0.00 0.00 0.00 41 1020.7
20260503185319 82 0.0 0.0 0.00 0.00 0.00 42 1021.0
20260503184318 82 0.0 0.0 0.00 0.00 0.00 42 1021.0
20260503183316 82 0.0 0.0 0.00 0.00 0.00 41 1021.3
20260503182315 82 0.0 0.0 0.00 0.00 0.00 41 1021.3
20260503181314 82 0.0 0.0 0.00 0.00 0.00 42 1021.7
20260503180313 81 0.0 0.0 0.00 0.00 0.00 43 1021.7
20260503175312 81 0.0 0.0 0.00 0.00 0.00 43 1022.0
20260503174311 81 0.0 0.0 0.00 0.00 0.00 45 1022.0
20260503173310 82 0.0 0.0 0.00 0.00 0.00 45 1022.4
20260503172308 81 0.0 0.0 0.00 0.00 0.00 46 1022.4
20260503171307 81 0.0 0.0 0.00 0.00 0.00 46 1022.4
20260503170306 80 0.0 0.0 0.00 0.00 0.00 47 1022.7
20260503140249 61 0.0 0.0 0.00 0.00 0.00 86 1022.4
20260503131244 53 0.0 0.0 0.00 0.00 0.00 88 1021.7
20260503130242 52 0.0 0.0 0.00 0.00 0.00 88 1021.7
20260503110231 52 0.0 0.0 0.00 0.00 0.00 86 1020.7
20260503100216 53 0.0 0.0 0.00 0.00 0.00 86 1020.7
20260503090127 53 0.0 0.0 0.00 0.00 0.00 84 1020.3
20260503080958 55 0.0 0.0 0.00 0.00 0.00 83 1020.3
20260503071955 56 0.0 0.0 0.00 0.00 0.00 82 1021.0
20260503070953 56 0.0 0.0 0.00 0.00 0.00 82 1021.0
20260503053821 58 0.0 0.0 0.00 0.00 0.00 79 1022.0